Tracking 23441 objects as of 15-Jun-2021
HD Live streaming from Space Station
objects crossing your sky now

CENTAURI-1

Track CENTAURI-1 now!
10-day predictions


NORAD ID: 43809
Int'l Code: 2018-099BD
Perigee: 575.4 km
Apogee: 598.5 km
Inclination: 97.7 °
Period: 96.3 minutes
Semi major axis: 6957 km
RCS: Unknown
Launch date: December 3, 2018
Source: Australia (AUS)
Launch site: AIR FORCE WESTERN TEST RANGE (AFWTR)
aabbcc
Your satellite tracking list
Your tracking list is empty




NASA's NSSDC Master Catalog

Two Line Element Set (TLE):
1 43809U 18099BD  21165.74140106  .00000732  00000-0  70490-4 0  9995
2 43809  97.6639 236.6867 0016585  64.4308 295.8626 14.95837808137792
Source of the keplerian elements: AFSPC